[[{"header":{"parameterUnit":"m.s-1","parameterCategory":1,"la1":30.2991,"la2":30.254,"lo1":-89.0895,"lo2":-89.0444,"dy":0.0017,"dx":0.0017,"nx":28,"ny":28,"refTime":"2025-08-27T03:00:00:Z","depth":0,"parameterNumber":2,"parameterNumberName":"U-component_of_WINDS"},"data":[0,0,0,0,0,0,0,0,0,0,0,0,0,0,0,0,0,0,0,0,0,0,0,0,0,0,0,0,0,0,0,0,0,0,0,0,0,0,0,0,0,0,0,0,0,0,0,0,0,0,0,0,0,0,0,0,0,0,-1.0394,-1.0394,0,-1.0416,-1.0416,-1.0417,-1.0395,-1.0394,-1.0394,-1.0393,-1.0419,-1.0421,-1.0422,0,0,0,0,0,0,0,0,0,0,0,0,0,-1.0338,-1.0339,-1.0394,-1.0394,-1.0394,-1.0416,-1.0416,-1.0417,-1.0395,-1.0394,-1.0393,-1.0392,-1.0419,-1.0421,-1.0423,0,0,0,0,0,0,0,0,0,0,0,0,0,-1.0361,-1.0339,-1.0394,-1.0386,-1.0386,-1.0416,-1.0416,-1.0417,-1.0396,-1.0394,-1.0393,-1.0392,-1.0418,-1.0421,-1.0423,-1.0463,0,0,-1.043,-1.0431,0,0,0,0,0,0,0,0,-1.036,-1.0363,-1.0387,-1.0387,-1.0386,-1.0401,-1.0406,-1.0432,-1.0396,-1.0392,-1.0393,-1.0391,-1.0415,-1.0417,-1.0424,-1.0464,-1.0465,-1.043,-1.0431,-1.0432,-1.0433,0,0,0,0,0,0,0,-1.0358,-1.0362,-1.0403,-1.0388,-1.0387,-1.0383,-1.0385,-1.0411,-1.0411,-1.0392,-1.0391,-1.0394,-1.0414,-1.0422,-1.0425,-1.0466,-1.043,-1.0432,-1.0433,-1.0434,-1.054,-1.0541,0,0,0,0,0,0,-1.0357,-1.0361,-1.0402,-1.0403,-1.037,-1.0385,-1.0388,-1.0398,-1.041,-1.0411,-1.0395,-1.0392,-1.0419,-1.0422,-1.0426,-1.0473,-1.0432,-1.0434,-1.0436,-1.0538,-1.054,-1.0542,0,0,0,0,0,0,-1.0356,-1.0361,-1.0401,-1.0382,-1.0387,-1.0388,-1.04,-1.0399,-1.0407,-1.0412,-1.0412,-1.0402,-1.0418,-1.0423,-1.0454,-1.0474,-1.0435,-1.0438,-1.0537,-1.0539,-1.0541,-1.0568,0,0,0,0,0,0,-1.0354,-1.036,-1.0374,-1.0382,-1.0388,-1.0427,-1.0401,-1.0401,-1.041,-1.0408,-1.0419,-1.042,-1.0417,-1.045,-1.0456,-1.0476,-1.0439,-1.0535,-1.0538,-1.054,-1.0565,-1.0571,-1.0576,0,0,0,0,0,-1.0352,-1.0382,-1.0375,-1.038,-1.0405,-1.0428,-1.0432,-1.0427,-1.0412,-1.0427,-1.043,-1.042,-1.0471,-1.0454,-1.046,-1.0481,-1.0534,-1.0537,-1.054,-1.0563,-1.057,-1.0576,0,0,0,0,0,0,-1.0378,-1.0383,-1.0375,-1.0408,-1.0418,-1.0425,-1.0443,-1.0434,-1.0449,-1.0446,-1.0442,-1.0444,-1.0477,-1.0483,-1.0463,-1.0521,-1.05,-1.0505,-1.0516,-1.0522,-1.0527,-1.0525,-1.0441,0,0,0,0,0,-1.0387,-1.0404,-1.0408,-1.0437,-1.0442,-1.0442,-1.0452,-1.0447,-1.0458,-1.0462,-1.0468,-1.0479,-1.0498,-1.0511,-1.0528,-1.0567,-1.0569,-1.0585,-1.059,-1.0594,-1.0598,-1.0619,-1.0626,-1.0552,-1.0552,-1.0552,0,0,-1.0406,-1.0411,-1.0422,-1.0442,-1.0449,-1.0468,-1.0445,-1.0466,-1.0481,-1.0466,-1.0495,-1.05,-1.0513,-1.0547,-1.0563,-1.0553,-1.0619,-1.0598,-1.0602,-1.0603,-1.0623,-1.063,-1.0636,-1.0555,-1.0554,-1.0554,0,0,-1.0451,-1.0456,-1.0481,-1.0488,-1.0499,-1.0499,-1.0505,-1.0513,-1.0515,-1.0544,-1.0533,-1.0552,-1.0584,-1.0594,-1.0603,-1.0653,-1.0644,-1.0659,-1.0686,-1.0706,-1.0712,-1.0717,-1.0735,-1.0741,-1.0663,-1.0663,-1.0663,0,-1.0474,-1.0501,-1.0495,-1.0516,-1.0526,-1.0512,-1.0538,-1.0546,-1.0562,-1.057,-1.0558,-1.0599,-1.0606,-1.0643,-1.0656,-1.0664,-1.0671,-1.0657,-1.0712,-1.0717,-1.0721,-1.0738,-1.0745,-1.0665,-1.0665,-1.0665,-1.0664,0,-1.0528,-1.0547,-1.0566,-1.0581,-1.0593,-1.0616,-1.0615,-1.0628,-1.0624,-1.0625,-1.0656,-1.0665,-1.0684,-1.0693,-1.0689,-1.073,-1.0723,-1.0712,-1.0691,-1.073,-1.0746,-1.0752,-1.0667,-1.0667,-1.0666,-1.0666,0,0,-1.0588,-1.06,-1.0606,-1.0613,-1.0625,-1.064,-1.0664,-1.0682,-1.0693,-1.0706,-1.0726,-1.0754,-1.0744,-1.0754,-1.0752,-1.077,-1.0809,-1.0756,-1.0757,-1.0765,-1.0855,-1.0863,-1.087,-1.0804,-1.0805,-1.0806,-1.0854,0,-1.0632,-1.0671,-1.0668,-1.0706,-1.0724,-1.0712,-1.0733,-1.0743,-1.0746,-1.0763,-1.0767,-1.0787,-1.0772,-1.0778,-1.0796,-1.08,-1.0827,-1.0797,-1.0823,-1.0824,-1.0819,-1.0878,-1.0886,-1.0931,-1.086,-1.0861,-1.0862,0,-1.0689,-1.0702,-1.0741,-1.075,-1.0758,-1.0776,-1.0793,-1.0809,-1.0821,-1.0822,-1.0834,-1.0829,-1.0855,-1.0834,-1.087,-1.085,-1.0861,-1.0865,-1.0867,-1.0868,-1.0844,-1.0881,-1.0945,-1.0951,-1.0871,-1.0871,-1.087,0,-1.0728,-1.0756,-1.0782,-1.0789,-1.08,-1.0814,-1.082,-1.083,-1.0841,-1.0857,-1.0864,-1.0883,-1.0893,-1.0908,-1.0909,-1.0894,-1.0945,-1.0924,-1.0947,-1.0947,-1.0957,-1.0956,-1.1023,-1.0966,-1.0966,-1.0966,-1.0966,0,-1.0777,-1.0801,-1.08,-1.0816,-1.0844,-1.0841,-1.0869,-1.0873,-1.0883,-1.0902,-1.0894,-1.0912,-1.0912,-1.0931,-1.0932,-1.0961,-1.0966,-1.0968,-1.0968,-1.0968,-1.0968,-1.0975,-1.0971,-1.0968,-1.0967,-1.0967,-1.0967,0,-1.0824,-1.0824,-1.0853,-1.0861,-1.0864,-1.0884,-1.0892,-1.0909,-1.0912,-1.0935,-1.0941,-1.0945,-1.0967,-1.0969,-1.0995,-1.0996,-1.1032,-1.1029,-1.1027,-1.1026,-1.1048,-1.1046,-1.1121,-1.113,-1.1068,-1.1068,-1.1069,0,-1.0854,-1.0873,-1.0883,-1.0894,-1.0901,-1.0919,-1.093,-1.0928,-1.0941,-1.0956,-1.0971,-1.0992,-1.1008,-1.1044,-1.1051,-1.1071,-1.1068,-1.1093,-1.1071,-1.1071,-1.1068,-1.1066,-1.1068,-1.1097,-1.1097,-1.1098,-1.1098,0,-1.0909,-1.0908,-1.0924,-1.094,-1.0953,-1.0966,-1.0978,-1.0988,-1.0988,-1.1003,-1.1024,-1.1037,-1.1063,-1.1084,-1.1104,-1.1112,-1.1106,-1.1106,-1.1112,-1.1112,-1.1109,-1.111,-1.1037,-1.1104,-1.1103,-1.1103,-1.1102,-1.1102,-1.0948,-1.0964,-1.0974,-1.0992,-1.1001,-1.1012,-1.1028,-1.1033,-1.105,-1.107,-1.1069,-1.1093,-1.1106,-1.1132,-1.1141,-1.1161,-1.1153,-1.1162,-1.1164,-1.1166,-1.1168,-1.1107,-1.1165,-1.1165,-1.1165,-1.1165,-1.1165,0,-1.1002,-1.1008,-1.1024,-1.1041,-1.1055,-1.1048,-1.1061,-1.1074,-1.1095,-1.1107,-1.1123,-1.1148,-1.1169,-1.1178,-1.1199,-1.1213,-1.1211,-1.1218,-1.1217,-1.1219,-1.1174,-1.1167,-1.122,-1.122,-1.122,-1.122,-1.122,-1.122,-1.1031,-1.1057,-1.1058,-1.1089,-1.1096,-1.1118,-1.1126,-1.1137,-1.1147,-1.1175,-1.1192,-1.1197,-1.1208,-1.123,-1.1249,-1.1252,-1.1259,-1.1268,-1.1269,-1.1227,-1.1222,-1.1216,-1.1209,-1.127,-1.127,-1.1312,-1.1312,-1.1312]},{"header":{"parameterUnit":"m.s-1","parameterCategory":1,"la1":30.2991,"la2":30.254,"lo1":-89.0895,"lo2":-89.0444,"dy":0.0017,"dx":0.0017,"nx":28,"ny":28,"refTime":"2025-08-27T03:00:00:Z","depth":0,"parameterNumber":3,"parameterNumberName":"V-component_of_WINDS"},"data":[0,0,0,0,0,0,0,0,0,0,0,0,0,0,0,0,0,0,0,0,0,0,0,0,0,0,0,0,0,0,0,0,0,0,0,0,0,0,0,0,0,0,0,0,0,0,0,0,0,0,0,0,0,0,0,0,0,0,0.6018,0.6019,0,0.6133,0.6134,0.6136,0.624,0.6241,0.6242,0.6244,0.6361,0.6363,0.6365,0,0,0,0,0,0,0,0,0,0,0,0,0,0.5888,0.589,0.6018,0.6019,0.6021,0.6133,0.6134,0.6136,0.624,0.6241,0.6243,0.6244,0.6361,0.6363,0.6365,0,0,0,0,0,0,0,0,0,0,0,0,0,0.5968,0.589,0.6018,0.6086,0.6093,0.6132,0.6134,0.6136,0.6239,0.6241,0.6243,0.6245,0.636,0.6363,0.6366,0.6346,0,0,0.6375,0.6376,0,0,0,0,0,0,0,0,0.5963,0.5972,0.6074,0.6081,0.609,0.6174,0.6132,0.6207,0.6239,0.6184,0.6244,0.6246,0.6297,0.6306,0.6323,0.6352,0.6357,0.6375,0.6377,0.6378,0.6379,0,0,0,0,0,0,0,0.5957,0.5968,0.6063,0.6076,0.6085,0.6111,0.6124,0.6146,0.6229,0.6189,0.6197,0.6209,0.6302,0.632,0.6327,0.6359,0.6375,0.6377,0.6379,0.638,0.6377,0.6376,0,0,0,0,0,0,0.5941,0.5963,0.606,0.6067,0.603,0.6112,0.6127,0.6145,0.6229,0.6243,0.6207,0.6213,0.6314,0.6323,0.6331,0.6314,0.6378,0.6381,0.6382,0.6379,0.6377,0.6375,0,0,0,0,0,0,0.5938,0.5949,0.6055,0.6017,0.6032,0.6112,0.6132,0.6146,0.6165,0.6243,0.6258,0.6211,0.6316,0.6327,0.6342,0.632,0.6382,0.6385,0.6381,0.6378,0.6376,0.6279,0,0,0,0,0,0,0.5934,0.5947,0.5941,0.6016,0.6034,0.6063,0.613,0.6147,0.6169,0.6178,0.625,0.6263,0.6318,0.6337,0.6345,0.6325,0.6387,0.6384,0.638,0.6377,0.6285,0.6274,0.6264,0,0,0,0,0,0.5929,0.5909,0.594,0.5951,0.6028,0.6062,0.6072,0.6136,0.6167,0.6161,0.6211,0.6261,0.6321,0.6337,0.6347,0.6328,0.6385,0.6381,0.6377,0.629,0.6276,0.6264,0,0,0,0,0,0,0.5829,0.592,0.5955,0.5959,0.6002,0.608,0.6074,0.6119,0.6154,0.6161,0.6239,0.6254,0.626,0.6296,0.6313,0.6314,0.636,0.6357,0.629,0.6278,0.6267,0.6259,0.6389,0,0,0,0,0,0.5807,0.5828,0.5906,0.5902,0.5922,0.5994,0.6011,0.6056,0.6104,0.6123,0.6174,0.6218,0.6247,0.6264,0.6295,0.6291,0.6308,0.6282,0.6272,0.6263,0.626,0.626,0.625,0.6361,0.6361,0.6361,0,0,0.5763,0.5815,0.5823,0.5883,0.5922,0.5941,0.6008,0.6026,0.6041,0.6125,0.6143,0.6181,0.6236,0.6241,0.6246,0.6271,0.6233,0.6257,0.625,0.6252,0.6255,0.6244,0.6234,0.6358,0.6359,0.6359,0,0,0.5692,0.5733,0.5734,0.5771,0.5829,0.5877,0.5877,0.5948,0.5977,0.5995,0.6059,0.6078,0.6126,0.6162,0.6187,0.6129,0.6176,0.6137,0.6082,0.6082,0.6073,0.6065,0.6045,0.6036,0.6134,0.6133,0.6133,0,0.5629,0.5661,0.5729,0.5743,0.5767,0.5844,0.5846,0.5879,0.5943,0.5958,0.5985,0.6047,0.6089,0.6104,0.6089,0.6107,0.6109,0.6129,0.6069,0.6062,0.6056,0.6037,0.6029,0.6128,0.6129,0.6129,0.613,0,0.5581,0.5602,0.5596,0.5656,0.568,0.5687,0.5756,0.5772,0.5815,0.586,0.5878,0.5931,0.5974,0.5981,0.6023,0.6001,0.6015,0.6054,0.6102,0.6039,0.6022,0.6016,0.6121,0.6123,0.6124,0.6126,0,0,0.545,0.5548,0.5544,0.5572,0.5641,0.5659,0.567,0.5712,0.5724,0.5766,0.5777,0.5815,0.5852,0.588,0.5927,0.5926,0.5877,0.5966,0.5969,0.5948,0.5856,0.5826,0.5816,0.5909,0.5908,0.5907,0.5852,0,0.539,0.5414,0.5476,0.5481,0.5501,0.5574,0.5584,0.5627,0.5669,0.5693,0.574,0.5766,0.5813,0.583,0.5833,0.5882,0.586,0.5887,0.592,0.592,0.5903,0.5808,0.5776,0.5721,0.5846,0.5844,0.5844,0,0.5324,0.5361,0.5367,0.5435,0.5446,0.5453,0.5497,0.5518,0.5569,0.56,0.563,0.5682,0.5698,0.5742,0.5765,0.5782,0.5799,0.5825,0.5825,0.583,0.5878,0.581,0.5706,0.5697,0.5834,0.5835,0.5836,0,0.5227,0.5279,0.5289,0.5311,0.5391,0.5394,0.5427,0.548,0.5501,0.5539,0.5554,0.5593,0.5614,0.5643,0.5704,0.5731,0.572,0.5769,0.5746,0.5744,0.574,0.5739,0.5636,0.5751,0.5751,0.5751,0.5751,0,0.5154,0.5155,0.5247,0.5254,0.5257,0.5328,0.5329,0.537,0.5416,0.5431,0.5497,0.5511,0.5591,0.5613,0.5661,0.5672,0.5682,0.5707,0.572,0.5701,0.5698,0.5713,0.5718,0.5749,0.5749,0.575,0.575,0,0.5047,0.5108,0.5125,0.5199,0.5217,0.5216,0.528,0.5289,0.5335,0.5354,0.5363,0.5435,0.5465,0.5529,0.5577,0.5609,0.5609,0.5631,0.5591,0.5599,0.5572,0.5574,0.5475,0.5466,0.5586,0.5584,0.5583,0,0.4996,0.4998,0.5072,0.5087,0.5118,0.5142,0.5164,0.5233,0.5253,0.5311,0.5313,0.5348,0.538,0.5424,0.5482,0.5518,0.5542,0.5505,0.5548,0.5529,0.5542,0.5541,0.5541,0.5495,0.5494,0.5492,0.5491,0,0.4898,0.4929,0.4958,0.4997,0.5022,0.5056,0.5094,0.5103,0.5182,0.5201,0.5232,0.5257,0.5305,0.5339,0.5384,0.5419,0.5468,0.5477,0.5474,0.5455,0.5431,0.5443,0.5565,0.5479,0.548,0.5481,0.5482,0.5483,0.4818,0.4824,0.4877,0.4907,0.4943,0.4977,0.4989,0.5036,0.5064,0.5108,0.5148,0.5175,0.5226,0.5292,0.5323,0.5346,0.537,0.5365,0.5364,0.5362,0.5354,0.5427,0.5355,0.5355,0.5355,0.5356,0.5356,0,0.4724,0.4762,0.4789,0.484,0.4863,0.4907,0.4952,0.4969,0.4992,0.5035,0.5065,0.5101,0.5134,0.5194,0.5232,0.5239,0.5262,0.5247,0.5247,0.5254,0.533,0.5329,0.5227,0.5227,0.5227,0.5227,0.5227,0.5227,0.4678,0.469,0.4727,0.4757,0.4795,0.4822,0.4844,0.4875,0.491,0.4947,0.4975,0.5014,0.5064,0.5106,0.5139,0.5155,0.5166,0.5143,0.5167,0.5236,0.5249,0.526,0.526,0.5145,0.5145,0.5089,0.5089,0.5088]}]]